When you browse on this site, cookies collect data to enhance your experience and personalize the content and advertising you see.
Visit our Privacy Policy to learn more. By continuing to use the site, you agree to this use of cookies and data.
  • In Germany
  • List of Countries
  • For 7 days
  • Water Temperature
  • Weather Map
  • Weather Widgets
  • user-avatar
    Login

    Hourly Weather Djelfa

    Today, 16 September, Monday

    Time Temperature Precipitation Wind Pressure Humidity
    00:00 +24°C° 0.1 mm 6 mps 670 mmHg 45%
    01:00 +24°C° 0.2 mm 6 mps 670 mmHg 45%
    02:00 +24°C° 0.2 mm 7 mps 669 mmHg 45%
    03:00 +24°C° 0.2 mm 7 mps 669 mmHg 46%
    04:00 +23°C° 0 mm 6 mps 669 mmHg 47%
    05:00 +23°C° 0 mm 5 mps 669 mmHg 48%
    06:00 +24°C° 0 mm 3 mps 669 mmHg 50%
    07:00 +25°C° 0.1 mm 3 mps 669 mmHg 46%
    08:00 +26°C° 0.1 mm 4 mps 670 mmHg 42%
    09:00 +28°C° 0.1 mm 4 mps 670 mmHg 38%
    10:00 +29°C° 0 mm 5 mps 670 mmHg 35%
    11:00 +30°C° 0 mm 5 mps 670 mmHg 32%
    12:00 +32°C° 0 mm 6 mps 670 mmHg 29%
    13:00 +33°C° 0 mm 6 mps 670 mmHg 28%
    14:00 +33°C° 0 mm 6 mps 670 mmHg 27%
    15:00 +33°C° 0 mm 5 mps 669 mmHg 26%
    16:00 +30°C° 0.3 mm 6 mps 669 mmHg 30%
    17:00 +28°C° 0.3 mm 7 mps 668 mmHg 34%
    18:00 +26°C° 0.3 mm 7 mps 667 mmHg 39%
    19:00 +26°C° 0.4 mm 6 mps 668 mmHg 40%
    20:00 +26°C° 0.4 mm 5 mps 668 mmHg 42%
    21:00 +26°C° 0.4 mm 4 mps 669 mmHg 43%
    22:00 +26°C° 0.3 mm 4 mps 669 mmHg 44%
    23:00 +26°C° 0.3 mm 3 mps 669 mmHg 45%

    Tomorrow, 17 September, Tuesday

    Time Temperature Precipitation Wind Pressure Humidity
    00:00 +25°C° 0.3 mm 3 mps 668 mmHg 46%
    01:00 +25°C° 0 mm 3 mps 668 mmHg 46%
    02:00 +25°C° 0 mm 3 mps 668 mmHg 46%
    03:00 +25°C° 0 mm 3 mps 667 mmHg 46%
    04:00 +24°C° 0 mm 3 mps 667 mmHg 47%
    05:00 +24°C° 0 mm 3 mps 667 mmHg 47%
    06:00 +24°C° 0 mm 3 mps 667 mmHg 48%
    07:00 +26°C° 0 mm 4 mps 668 mmHg 42%
    08:00 +28°C° 0 mm 5 mps 669 mmHg 35%
    09:00 +30°C° 0 mm 6 mps 669 mmHg 29%
    10:00 +32°C° 0 mm 6 mps 669 mmHg 27%
    11:00 +33°C° 0 mm 6 mps 669 mmHg 24%
    12:00 +35°C° 0 mm 7 mps 669 mmHg 22%
    13:00 +34°C° 0 mm 7 mps 668 mmHg 22%
    14:00 +34°C° 0 mm 7 mps 668 mmHg 23%
    15:00 +34°C° 0 mm 7 mps 667 mmHg 23%
    16:00 +31°C° 0.6 mm 8 mps 667 mmHg 33%
    17:00 +26°C° 0.6 mm 9 mps 667 mmHg 44%
    18:00 +22°C° 0.6 mm 10 mps 667 mmHg 54%
    19:00 +23°C° 0.5 mm 9 mps 667 mmHg 52%
    20:00 +23°C° 0.5 mm 8 mps 668 mmHg 51%
    21:00 +24°C° 0.5 mm 8 mps 668 mmHg 49%
    22:00 +23°C° 0.1 mm 6 mps 668 mmHg 51%
    23:00 +23°C° 0.1 mm 4 mps 668 mmHg 53%

    Day after tomorrow, 18 September, Wednesday

    Time Temperature Precipitation Wind Pressure Humidity
    00:00 +24°C° 0.1 mm 2 mps 668 mmHg 55%
    01:00 +24°C° 0 mm 3 mps 667 mmHg 52%
    02:00 +23°C° 0 mm 4 mps 667 mmHg 49%
    03:00 +23°C° 0 mm 5 mps 667 mmHg 46%
    04:00 +23°C° 0 mm 4 mps 667 mmHg 44%
    05:00 +25°C° 0 mm 4 mps 667 mmHg 43%
    06:00 +25°C° 0 mm 3 mps 667 mmHg 41%
    07:00 +26°C° 0 mm 4 mps 667 mmHg 39%
    08:00 +27°C° 0 mm 4 mps 668 mmHg 37%
    09:00 +28°C° 0 mm 5 mps 668 mmHg 34%
    10:00 +28°C° 0 mm 5 mps 668 mmHg 34%
    11:00 +29°C° 0 mm 6 mps 668 mmHg 34%
    12:00 +29°C° 0 mm 6 mps 668 mmHg 34%
    13:00 +29°C° 0 mm 6 mps 668 mmHg 32%
    14:00 +30°C° 0 mm 6 mps 668 mmHg 30%
    15:00 +30°C° 0 mm 7 mps 668 mmHg 28%
    16:00 +29°C° 0.1 mm 6 mps 668 mmHg 31%
    17:00 +28°C° 0.1 mm 5 mps 667 mmHg 34%
    18:00 +27°C° 0.1 mm 4 mps 667 mmHg 36%
    19:00 +27°C° 0 mm 3 mps 668 mmHg 37%
    20:00 +26°C° 0 mm 3 mps 668 mmHg 38%
    21:00 +26°C° 0 mm 2 mps 668 mmHg 39%
    22:00 +26°C° 0 mm 3 mps 668 mmHg 38%
    23:00 +26°C° 0 mm 4 mps 668 mmHg 37%

    19 September, Thursday

    Time Temperature Precipitation Wind Pressure Humidity
    00:00 +26°C° 0 mm 5 mps 668 mmHg 37%
    01:00 +25°C° 0 mm 5 mps 667 mmHg 40%
    02:00 +25°C° 0 mm 5 mps 667 mmHg 43%
    03:00 +23°C° 0 mm 6 mps 667 mmHg 47%
    04:00 +23°C° 0 mm 5 mps 667 mmHg 47%
    05:00 +23°C° 0 mm 4 mps 667 mmHg 47%
    06:00 +24°C° 0 mm 3 mps 667 mmHg 47%
    07:00 +25°C° 0 mm 4 mps 668 mmHg 42%
    08:00 +26°C° 0 mm 5 mps 668 mmHg 37%
    09:00 +28°C° 0 mm 6 mps 669 mmHg 32%
    10:00 +29°C° 0 mm 6 mps 669 mmHg 29%
    11:00 +30°C° 0 mm 6 mps 669 mmHg 25%
    12:00 +32°C° 0 mm 7 mps 669 mmHg 21%
    13:00 +32°C° 0 mm 6 mps 669 mmHg 21%
    14:00 +32°C° 0 mm 5 mps 668 mmHg 21%
    15:00 +32°C° 0 mm 4 mps 668 mmHg 21%
    16:00 +30°C° 0 mm 4 mps 668 mmHg 23%
    17:00 +29°C° 0 mm 4 mps 668 mmHg 25%
    18:00 +28°C° 0 mm 4 mps 667 mmHg 27%
    19:00 +28°C° 0 mm 4 mps 668 mmHg 28%
    20:00 +28°C° 0 mm 3 mps 668 mmHg 29%
    21:00 +27°C° 0 mm 3 mps 668 mmHg 30%
    22:00 +27°C° 0 mm 4 mps 668 mmHg 31%
    23:00 +26°C° 0 mm 5 mps 667 mmHg 33%

    20 September, Friday

    Time Temperature Precipitation Wind Pressure Humidity
    00:00 +26°C° 0 mm 6 mps 667 mmHg 34%
    01:00 +24°C° 0 mm 6 mps 667 mmHg 34%
    02:00 +24°C° 0 mm 6 mps 667 mmHg 35%
    03:00 +24°C° 0 mm 6 mps 667 mmHg 35%
    04:00 +23°C° 0 mm 5 mps 667 mmHg 37%
    05:00 +24°C° 0 mm 3 mps 666 mmHg 38%
    06:00 +23°C° 0 mm 2 mps 666 mmHg 40%
    07:00 +25°C° 0 mm 3 mps 667 mmHg 35%
    08:00 +27°C° 0 mm 3 mps 668 mmHg 30%
    09:00 +29°C° 0 mm 4 mps 669 mmHg 25%
    10:00 +29°C° 0 mm 4 mps 669 mmHg 24%
    11:00 +30°C° 0 mm 4 mps 668 mmHg 23%
    12:00 +30°C° 0 mm 4 mps 668 mmHg 22%
    13:00 +32°C° 0 mm 5 mps 668 mmHg 21%
    14:00 +32°C° 0 mm 5 mps 667 mmHg 20%
    15:00 +32°C° 0 mm 5 mps 667 mmHg 20%
    16:00 +30°C° 0 mm 4 mps 667 mmHg 21%
    17:00 +30°C° 0 mm 4 mps 667 mmHg 23%
    18:00 +29°C° 0 mm 4 mps 666 mmHg 24%
    19:00 +28°C° 0 mm 5 mps 666 mmHg 29%
    20:00 +27°C° 0 mm 6 mps 666 mmHg 34%
    21:00 +26°C° 0 mm 8 mps 666 mmHg 38%
    22:00 +26°C° 0 mm 8 mps 666 mmHg 40%
    23:00 +26°C° 0 mm 8 mps 666 mmHg 42%

    21 September, Saturday

    Time Temperature Precipitation Wind Pressure Humidity
    00:00 +24°C° 0 mm 9 mps 666 mmHg 43%
    01:00 +24°C° 0 mm 9 mps 666 mmHg 43%
    02:00 +24°C° 0 mm 9 mps 666 mmHg 43%
    03:00 +24°C° 0 mm 9 mps 666 mmHg 43%
    04:00 +23°C° 0 mm 9 mps 666 mmHg 50%
    05:00 +22°C° 0 mm 10 mps 666 mmHg 58%
    06:00 +21°C° 0 mm 11 mps 666 mmHg 65%
    07:00 +23°C° 0 mm 12 mps 666 mmHg 59%
    08:00 +24°C° 0 mm 12 mps 667 mmHg 52%
    09:00 +26°C° 0 mm 13 mps 667 mmHg 46%
    10:00 +28°C° 0 mm 12 mps 667 mmHg 40%
    11:00 +29°C° 0 mm 12 mps 667 mmHg 33%
    12:00 +32°C° 0 mm 12 mps 668 mmHg 27%
    13:00 +32°C° 0 mm 12 mps 667 mmHg 24%
    14:00 +33°C° 0 mm 11 mps 667 mmHg 21%
    15:00 +34°C° 0 mm 10 mps 667 mmHg 18%
    16:00 +33°C° 0 mm 9 mps 666 mmHg 19%
    17:00 +32°C° 0 mm 8 mps 666 mmHg 20%
    18:00 +30°C° 0 mm 6 mps 666 mmHg 21%
    19:00 +29°C° 0 mm 7 mps 666 mmHg 27%
    20:00 +28°C° 0 mm 9 mps 667 mmHg 32%
    21:00 +26°C° 0 mm 10 mps 667 mmHg 38%
    22:00 +26°C° 0 mm 10 mps 667 mmHg 39%
    23:00 +24°C° 0 mm 10 mps 667 mmHg 40%
    Show more